STARLINK-4391 (53189 NORAD) Tracking and Keplerian Element Data

This shows tracking and keplerian element data for the satellite.

Feedback or suggestion? Click here.




ElementValue
Catalog53189
NameSTARLINK-4391
Epoch Orbit1072
Epoch Day270.11787592
Epoch Year2022
RAAN329.9543
Inclination97.6552
Eccentricity0.0001876
Argument of Perigee84.1533
Mean Anonmoly275.9905
Mean Motion15.01262256
Decay Rate1.75E-05
L11 53189U 22084A 22270.11787592 .00001750 00000+0 14078-3 0 9990
L22 53189 97.6552 329.9543 0001876 84.1533 275.9905 15.01262256 10720

Live tracking and technical data element details for STARLINK-4391 (NORAD 53189). STARLINK-4391 can be tracked NOW for your location showing map with azimuth and elevation plus other details from your city location.

Track the satellite on the map from your city or location and see movement details for azimuth, elevation, latitude, longitude, range, height, and movement on the map or in text.







IsCatalogInMostPopularTable: catalog: 53189, numindb: 7
Update: records affected: 1



GetName: 53189 STARLINK-4391

Hit Count: updated at: Wed, 28 Sep 2022 22:36:17 GMT